"Pseudo-MPEC" for P11JpC3

Created 2023 Sep 20 19:22:26 UT using Find_Orb

Click here for an explanation of pseudo-MPECs

 
 Astrometry: 
     P11JpC3* C2023 09 13bLW2u5XZ_uyKTnuAstrometryJ$mu\Oredacted;`V2vLG.t60]gF51
     P11JpC3  C2023 09 13I7#'Kb#Jclick3Wb[CVVY+q5qmr!6b2MXSwI0$tr[D_herel=HM`F51
     P11JpC3  C2023 09 13X^s=U.4HJ`#;#ih[Ce+forSD%YJeLggy'y7lb*n3EexplanationF51

Station data:
(F51) Pan-STARRS 1, Haleakala  (N20.707234 W156.255910)  US/Hawaii.
   Observers J. Bulger, T. Lowe, A. Schultz, M. Willman. Measurers K.
   Chambers, S. Chastel, T. de Boer, L. Denneau, J. Fairlamb, H. Flewelling,
   M. Huber, C.-C. Lin, E. Magnier, Y. Ramanjooloo, R. Wainscoat, R. Weryk.
   1.8-m Ritchey-Chrétien + CCD.

Orbital elements:  P11JpC3
   Perihelion 2024 Apr 15.71182 +/- 220 TT = 17:05:00 (JD 2460416.21182)
Epoch 2023 Sep 13.0 TT = JDT 2460200.5   Earth MOID: 0.7037      AutoNEOCP
M 291.38711085 +/- 60               (J2000 ecliptic)
n   0.31807663 +/- 0.229            Peri.  271.71955 +/- 90
a   2.12543682 +/- 1.02             Node   181.24515 +/- 37
e   0.3092101 +/- 0.277             Incl.   26.31795 +/- 28
P   3.10                   H 19.70  G  0.15   U 11.8  SR
q 1.46823025 +/- 0.782    Q 2.78264340 +/- 35.7
From 3 observations 2023 Sept. 13 (37.3 min); mean residual 0".08
Residuals in arcseconds: 
230913 F51  .01+  .08-    230913 F51  .02-  .15+    230913 F51  .01+  .08-    

Ephemerides (geocentric):
Date (UTC) HH   RA             Dec           delta  r     elong  mag " sig PA
---- --------  ------------   ------------  ------ ------ -----  --- --------
2023 09 20 19  22 58 51.565   +02 58 08.51  1.0636 2.0539 166.6 21.9  25d  94
2023 09 20 20  22 58 49.316   +02 57 09.09  1.0635 2.0537 166.6 21.9  25d  94
2023 09 20 21  22 58 47.068   +02 56 09.65  1.0635 2.0535 166.6 21.9  25d  94
2023 09 20 22  22 58 44.822   +02 55 10.20  1.0634 2.0534 166.5 21.9  25d  95
2023 09 20 23  22 58 42.576   +02 54 10.74  1.0633 2.0532 166.5 21.9  26d  98
2023 09 21 00  22 58 40.332   +02 53 11.26  1.0633 2.0531 166.4 21.9  28d 101
2023 09 21 01  22 58 38.088   +02 52 11.77  1.0632 2.0529 166.4 21.9  29d 101
2023 09 21 02  22 58 35.846   +02 51 12.27  1.0631 2.0528 166.4 21.9  30d 101
2023 09 21 03  22 58 33.605   +02 50 12.75  1.0630 2.0526 166.3 21.9  30d 100
2023 09 21 04  22 58 31.365   +02 49 13.22  1.0630 2.0525 166.3 21.9  30d 100
2023 09 21 05  22 58 29.127   +02 48 13.68  1.0629 2.0523 166.3 21.9  30d  99
2023 09 21 06  22 58 26.889   +02 47 14.12  1.0628 2.0521 166.2 21.9  30d  99
2023 09 21 07  22 58 24.652   +02 46 14.55  1.0628 2.0520 166.2 21.9  30d  98
2023 09 21 08  22 58 22.417   +02 45 14.96  1.0627 2.0518 166.2 21.9  30d  98
2023 09 21 09  22 58 20.183   +02 44 15.37  1.0626 2.0517 166.1 21.9  30d  98
2023 09 21 10  22 58 17.950   +02 43 15.76  1.0626 2.0515 166.1 21.9  30d  97
2023 09 21 11  22 58 15.718   +02 42 16.14  1.0625 2.0514 166.0 21.9  30d  97
2023 09 21 12  22 58 13.488   +02 41 16.50  1.0625 2.0512 166.0 21.9  30d  97
2023 09 21 13  22 58 11.258   +02 40 16.85  1.0624 2.0510 166.0 21.9  30d  97
2023 09 21 14  22 58 09.030   +02 39 17.20  1.0623 2.0509 165.9 21.9  30d  97
2023 09 21 15  22 58 06.803   +02 38 17.52  1.0623 2.0507 165.9 21.9  30d  96
2023 09 21 16  22 58 04.577   +02 37 17.84  1.0622 2.0506 165.9 21.9  30d  96
2023 09 21 17  22 58 02.352   +02 36 18.14  1.0621 2.0504 165.8 21.9  30d  96
2023 09 21 18  22 58 00.129   +02 35 18.44  1.0621 2.0503 165.8 21.9  30d  96
2023 09 21 19  22 57 57.907   +02 34 18.72  1.0620 2.0501 165.7 21.9  30d  96
2023 09 21 20  22 57 55.686   +02 33 18.99  1.0620 2.0499 165.7 21.9  30d  96
2023 09 21 21  22 57 53.466   +02 32 19.24  1.0619 2.0498 165.7 21.9  30d  96
2023 09 21 22  22 57 51.248   +02 31 19.49  1.0618 2.0496 165.6 21.9  30d  96
2023 09 21 23  22 57 49.031   +02 30 19.72  1.0618 2.0495 165.6 21.9  30d  96
2023 09 22 00  22 57 46.815   +02 29 19.95  1.0617 2.0493 165.6 21.9  30d  96
2023 09 22 01  22 57 44.600   +02 28 20.16  1.0617 2.0492 165.5 21.9  30d  96
2023 09 22 02  22 57 42.387   +02 27 20.36  1.0616 2.0490 165.5 21.9  30d  96
2023 09 22 03  22 57 40.175   +02 26 20.55  1.0615 2.0488 165.4 21.9  30d  97
2023 09 22 04  22 57 37.964   +02 25 20.73  1.0615 2.0487 165.4 21.9  30d  97
2023 09 22 05  22 57 35.754   +02 24 20.90  1.0614 2.0485 165.4 21.9  31d  97
2023 09 22 06  22 57 33.546   +02 23 21.06  1.0614 2.0484 165.3 21.9  31d  98
2023 09 22 07  22 57 31.339   +02 22 21.20  1.0613 2.0482 165.3 21.9  31d  99
2023 09 22 08  22 57 29.134   +02 21 21.34  1.0613 2.0481 165.2 21.9  32d  99
2023 09 22 09  22 57 26.929   +02 20 21.47  1.0612 2.0479 165.2 21.9  32d  99
2023 09 22 10  22 57 24.726   +02 19 21.58  1.0612 2.0478 165.2 21.9  33d  99
2023 09 22 11  22 57 22.525   +02 18 21.69  1.0611 2.0476 165.1 21.9  33d  99
2023 09 22 12  22 57 20.324   +02 17 21.79  1.0611 2.0474 165.1 21.9  33d  99
2023 09 22 13  22 57 18.125   +02 16 21.87  1.0610 2.0473 165.0 21.9  34d  99
2023 09 22 14  22 57 15.928   +02 15 21.95  1.0610 2.0471 165.0 21.9  34d  98
2023 09 22 15  22 57 13.732   +02 14 22.02  1.0609 2.0470 165.0 21.9  34d  98
2023 09 22 16  22 57 11.537   +02 13 22.07  1.0608 2.0468 164.9 21.9  34d  98
2023 09 22 17  22 57 09.343   +02 12 22.12  1.0608 2.0467 164.9 21.9  34d  98
2023 09 22 18  22 57 07.151   +02 11 22.16  1.0607 2.0465 164.8 21.9  34d  98